Regional Weather Roundup
Issued by NWS

Home | Current Version | Previous Version | Text Only | Print | Product List | Glossary Off
Versions: 1 2 3 4 5 6 7 8 9 10 11 12 13 14 15 16 17 18 19 20 21 22 23 24 25 26 27 28 29 30 31 32 33 34 35 36 37 38 39 40 41 42 43 44 45 46 47 48 49 50

000
ASUS45 KBOU 251807
RWRCO

WEATHER ROUNDUP FOR COLORADO
NATIONAL WEATHER SERVICE DENVER/BOULDER CO
1100 AM MST SUN JAN 25 2015

NOTE: "FAIR" INDICATES FEW OR NO CLOUDS BELOW 12000 FEET WITH NO
SIGNIFICANT WEATHER AND/OR OBSTRUCTIONS TO VISIBILITY.

COZ001>005-013-030-031-251900-
...NORTHWEST COLORADO...

CITY           SKY/WX    TMP DP  RH WIND       PRES   REMARKS
CRAIG          MOSUNNY   26  19  74 SE3       30.40R
HAYDEN         CLOUDY    32  21  64 NE3       30.39R
MEEKER         SUNNY     27  17  66 CALM      30.40R
MOUNT WERNER   NOT AVBL
STEAMBOAT SPGS CLOUDY    32  23  70 CALM      30.40R
WALDEN         CLOUDY    34  27  75 S9        30.34R WCI  26
$$

COZ006>008-011-251900-
...WEST CENTRAL VALLEYS...

CITY           SKY/WX    TMP DP  RH WIND       PRES   REMARKS
GRAND JUNCTION SUNNY     40  18  41 VRB3      30.40S
MONTROSE       SUNNY     40  18  41 VRB5      30.41F
EAGLE          MOSUNNY   36  21  55 CALM      30.42S
RIFLE          MOSUNNY   36  19  50 CALM      30.42S
DELTA          SUNNY     38  20  49 E3        30.41F
NUCLA          SUNNY     37  19  48 CALM      30.41S
$$

COZ017>023-064>068-251900-
...SOUTHWEST COLORADO...

CITY           SKY/WX    TMP DP  RH WIND       PRES   REMARKS
DURANGO        SUNNY     35  20  54 E3        30.35R
CORTEZ         SUNNY     39  20  46 CALM      30.36S
PAGOSA SPRINGS SUNNY     39  16  38 E3        30.35R
TELLURIDE      SUNNY     39  17  41 CALM      30.41S
WOLF CREEK PAS NOT AVBL
$$

COZ009-010-012-014-032>034-037-058>063-251900-
...CENTRAL COLORADO...

CITY           SKY/WX    TMP DP  RH WIND       PRES   REMARKS
ASPEN          PTSUNNY   37  23  56 CALM      30.39S
BUENA VISTA    SUNNY     44  21  40 NW21G33   30.28F
COPPER MTN     HAZE      27  21  80 W20G33    30.42R VSB 1/2 WCI  13
BERTHOUD PASS  NOT AVBL
COTTONWOOD PAS SUNNY     39  18  41 NW14G36   30.31S
GUNNISON       SUNNY      7 -11  43 CALM      30.47F
KREMMLING      CLOUDY    36  27  69 W7        30.39R
LEADVILLE      MOSUNNY   31  20  63 NW14G29   30.36S WCI  21
MONARCH PASS   PTSUNNY   19  18  93 MISG      30.46F
SALIDA         SUNNY     48  20  32 W5        30.35S
SUNLIGHT       CLOUDY    30  27  86 W5          N/A  WCI  25
WILKERSON PASS SUNNY     32  19  59 SW7       30.36R WCI  26
$$

COZ069>075-251900-
...SAN LUIS VALLEY/SANGRE DE CRISTO MOUNTAINS...

CITY           SKY/WX    TMP DP  RH WIND       PRES   REMARKS
ALAMOSA        SUNNY     38  16  40 CALM      30.33S
LA VETA PASS   NOT AVBL
SAGUACHE       SUNNY     41  23  48 N14       30.33F
$$

COZ035-036-038>040-251900-
...NORTHERN COLORADO FRONT RANGE...

CITY           SKY/WX    TMP DP  RH WIND       PRES   REMARKS
DENVER INTL AP PTSUNNY   54  25  32 W8        30.17S
DMNS CITY PARK   N/A     57  23  27 S3        30.17F
AURORA         PTSUNNY   52  25  34 W6        30.18S
FRONT RANGE AP NOT AVBL
ERIE MUNI ARPT MOSUNNY   56  23  27 CALM      30.17S
BOULDER MUN AP MOSUNNY   57  27  30 W13       30.16R
CENTENNIAL     MOSUNNY   52  24  33 NW8       30.19R
BROOMFIELD     MOSUNNY   57  25  28 SW8G18    30.17S
FORT COLLINS   MOSUNNY   45  30  57 SW5       30.18S
LONGMONT       MOSUNNY   53  30  40 CALM      30.18S
$$

COZ041-046-047-076>085-087-088-251900-
...PIKES PEAK/PALMER DIVIDE AND SOUTHERN FOOTHILLS...

CITY           SKY/WX    TMP DP  RH WIND       PRES   REMARKS
COLO. SPRINGS  MOSUNNY   41  27  57 SE3       30.23R
A. F. ACADEMY  SUNNY     43  26  51 S6        30.21R
ELLICOTT       SUNNY    N/A N/A N/A CALM      30.21R
FALCON         SUNNY     49  22  35 NW8       30.23R
FORT CARSON    SUNNY     41  28  61 CALM      30.21R
LIMON          CLOUDY    45  27  49 W6        30.19R
MONUMENT HILL  SUNNY     43  27  52 NW12      30.21R
TRINIDAD       SUNNY     44  27  51 SW9       30.23S
$$

COZ042>045-048>051-090-091-251900-
...NORTHEAST COLORADO...

CITY           SKY/WX    TMP DP  RH WIND       PRES   REMARKS
GREELEY ARPT   CLOUDY    37  27  65 SE3       30.17S
AKRON          CLOUDY    44  30  57 NW8       30.15F
BURLINGTON     PTSUNNY   48  28  46 N25G35    30.14R
WRAY           CLOUDY    51  28  41 NW20G30   30.14S
STERLING       CLOUDY    48  36  61 N7        30.13F
HOLYOKE        SUNNY     54  30  40 NW18G29   30.13S
FORT MORGAN    CLOUDY    42  29  61 W8        30.17F
$$

COZ086-089-092>099-251900-
...SOUTHEAST COLORADO...

CITY           SKY/WX    TMP DP  RH WIND       PRES   REMARKS
PUEBLO         SUNNY     43  29  57 W5        30.21S
LA JUNTA       SUNNY     49  31  49 SW13      30.20F
LAMAR          SUNNY     46  32  58 W15       30.19S
SPRINGFIELD      N/A     48  29  47 NW13      30.20S
$$


USA.gov is the U.S. government's official web portal to all federal, state and local government web resources and services.